QPF
0.00 0.00 0.00 0.00 0.00 0.00 0.00 0.00 0.00 0.00 0.01 0.00 0.00 0.00 0.01 0.02 0.01 0.03 0.04 0.03 0.02 0.03 0.05 0.06 0.08 0.08 0.09 0.11 0.11 0.11 0.11 0.10 0.10 0.10 0.09 0.08 0.09 0.10 0.10 0.10 0.09 0.09 0.11 0.12 0.11 0.09 0.09 0.08 0.08
0.00 0.00 0.00 0.00 0.00 0.00 0.00 0.00 0.00 0.00 0.00 0.00 0.00 0.00 0.01 0.01 0.00 0.01 0.02 0.02 0.02 0.02 0.03 0.04 0.06 0.06 0.07 0.08 0.07 0.08 0.09 0.10 0.11 0.10 0.09 0.10 0.10 0.11 0.10 0.11 0.13 0.12 0.14 0.14 0.12 0.10 0.10 0.08 0.07
0.00 0.00 0.00 0.00 0.00 0.00 0.00 0.00 0.00 0.00 0.00 0.00 0.01 0.00 0.00 0.00 0.00 0.00 0.00 0.01 0.01 0.01 0.02 0.03 0.05 0.05 0.05 0.05 0.06 0.07 0.08 0.07 0.09 0.10 0.09 0.09 0.09 0.10 0.15 0.20 0.24 0.21 0.17 0.13 0.11 0.10 0.09 0.08 0.07
0.00 0.00 0.00 0.00 0.00 0.00 0.00 0.00 0.00 0.00 0.00 0.00 0.00 0.00 0.01 0.01 0.00 0.00 0.00 0.00 0.00 0.01 0.02 0.03 0.06 0.05 0.04 0.04 0.05 0.05 0.06 0.06 0.08 0.10 0.09 0.08 0.06 0.08 0.15 0.19 0.17 0.17 0.16 0.12 0.10 0.09 0.08 0.07 0.06
0.00 0.00 0.00 0.00 0.00 0.00 0.00 0.00 0.00 0.00 0.00 0.00 0.00 0.00 0.01 0.01 0.00 0.00 0.00 0.00 0.00 0.01 0.02 0.04 0.05 0.05 0.05 0.05 0.05 0.04 0.04 0.04 0.05 0.07 0.07 0.08 0.07 0.06 0.09 0.11 0.10 0.12 0.10 0.10 0.09 0.09 0.08 0.08 0.07
0.00 0.00 0.00 0.00 0.00 0.00 0.00 0.00 0.00 0.01 0.00 0.00 0.00 0.00 0.01 0.01 0.00 0.00 0.00 0.00 0.01 0.02 0.03 0.03 0.04 0.05 0.05 0.04 0.04 0.02 0.02 0.02 0.04 0.07 0.08 0.08 0.07 0.07 0.07 0.08 0.10 0.10 0.08 0.09 0.08 0.07 0.09 0.08 0.06
0.00 0.00 0.00 0.00 0.00 0.00 0.00 0.00 0.00 0.00 0.00 0.00 0.00 0.00 0.01 0.01 0.01 0.00 0.00 0.00 0.01 0.02 0.03 0.03 0.03 0.04 0.05 0.05 0.04 0.03 0.02 0.03 0.04 0.06 0.07 0.05 0.05 0.05 0.07 0.08 0.10 0.08 0.07 0.08 0.06 0.05 0.05 0.05 0.05
0.00 0.00 0.00 0.00 0.00 0.00 0.00 0.00 0.00 0.00 0.00 0.00 0.00 0.00 0.00 0.00 0.00 0.00 0.00 0.00 0.01 0.01 0.02 0.02 0.02 0.02 0.04 0.06 0.06 0.05 0.03 0.03 0.04 0.04 0.06 0.04 0.04 0.04 0.05 0.07 0.11 0.08 0.06 0.07 0.06 0.05 0.03 0.03 0.04
0.00 0.00 0.00 0.00 0.00 0.00 0.00 0.00 0.00 0.00 0.00 0.00 0.00 0.00 0.00 0.00 0.00 0.00 0.00 0.00 0.00 0.00 0.01 0.01 0.01 0.01 0.03 0.04 0.03 0.05 0.04 0.03 0.03 0.04 0.05 0.05 0.05 0.05 0.05 0.06 0.10 0.07 0.06 0.06 0.06 0.06 0.04 0.04 0.04
0.00 0.00 0.00 0.00 0.00 0.00 0.00 0.00 0.00 0.00 0.00 0.00 0.00 0.00 0.00 0.00 0.00 0.00 0.00 0.00 0.00 0.00 0.00 0.01 0.01 0.01 0.01 0.02 0.05 0.07 0.06 0.04 0.04 0.04 0.03 0.04 0.05 0.05 0.03 0.04 0.09 0.11 0.09 0.06 0.05 0.03 0.02 0.02 0.02
0.00 0.00 0.00 0.00 0.00 0.00 0.00 0.00 0.00 0.00 0.00 0.00 0.00 0.00 0.00 0.00 0.00 0.00 0.00 0.00 0.00 0.00 0.01 0.01 0.01 0.00 0.01 0.03 0.04 0.05 0.04 0.03 0.03 0.03 0.02 0.04 0.03 0.02 0.03 0.05 0.07 0.07 0.06 0.04 0.03 0.02 0.02 0.01 0.01
0.00 0.00 0.00 0.00 0.00 0.00 0.00 0.00 0.00 0.00 0.00 0.00 0.00 0.00 0.00 0.00 0.00 0.00 0.00 0.00 0.00 0.01 0.01 0.02 0.02 0.01 0.01 0.02 0.03 0.03 0.01 0.01 0.03 0.04 0.03 0.04 0.06 0.05 0.05 0.06 0.07 0.05 0.05 0.05 0.05 0.04 0.02 0.02 0.02
0.00 0.00 0.00 0.00 0.00 0.00 0.00 0.00 0.00 0.00 0.00 0.00 0.00 0.00 0.00 0.00 0.00 0.01 0.01 0.01 0.01 0.01 0.01 0.01 0.01 0.01 0.01 0.01 0.02 0.01 0.01 0.02 0.03 0.03 0.03 0.03 0.04 0.07 0.06 0.07 0.07 0.05 0.03 0.04 0.05 0.04 0.04 0.05 0.04
0.00 0.00 0.00 0.00 0.00 0.00 0.00 0.00 0.00 0.00 0.00 0.00 0.00 0.00 0.00 0.00 0.00 0.01 0.01 0.01 0.01 0.01 0.01 0.01 0.01 0.01 0.01 0.02 0.03 0.03 0.03 0.04 0.03 0.05 0.05 0.03 0.04 0.06 0.08 0.08 0.08 0.06 0.04 0.04 0.06 0.05 0.05 0.06 0.05
0.00 0.00 0.00 0.00 0.00 0.00 0.00 0.00 0.00 0.00 0.00 0.00 0.00 0.00 0.00 0.00 0.00 0.01 0.01 0.01 0.01 0.01 0.01 0.01 0.02 0.02 0.03 0.02 0.02 0.02 0.03 0.03 0.04 0.06 0.06 0.04 0.05 0.07 0.08 0.07 0.07 0.06 0.06 0.07 0.08 0.07 0.07 0.05 0.04
0.00 0.00 0.00 0.00 0.00 0.00 0.00 0.00 0.00 0.00 0.00 0.00 0.00 0.00 0.00 0.00 0.00 0.00 0.00 0.01 0.01 0.01 0.01 0.01 0.01 0.02 0.03 0.03 0.03 0.03 0.04 0.05 0.05 0.05 0.07 0.05 0.06 0.07 0.08 0.07 0.07 0.07 0.06 0.07 0.10 0.11 0.10 0.07 0.05
0.00 0.00 0.00 0.00 0.00 0.00 0.00 0.00 0.00 0.00 0.00 0.00 0.00 0.00 0.00 0.00 0.00 0.00 0.00 0.00 0.00 0.01 0.01 0.02 0.01 0.01 0.02 0.02 0.03 0.04 0.05 0.07 0.06 0.06 0.08 0.07 0.04 0.04 0.06 0.07 0.08 0.07 0.07 0.07 0.07 0.09 0.11 0.09 0.08
0.00 0.00 0.00 0.00 0.00 0.00 0.00 0.00 0.00 0.00 0.00 0.00 0.00 0.00 0.00 0.00 0.00 0.00 0.00 0.00 0.00 0.00 0.01 0.01 0.01 0.02 0.02 0.02 0.03 0.03 0.04 0.05 0.05 0.06 0.07 0.05 0.05 0.03 0.06 0.07 0.09 0.08 0.09 0.10 0.11 0.11 0.11 0.09 0.09
0.00 0.00 0.00 0.00 0.00 0.00 0.00 0.00 0.00 0.00 0.00 0.00 0.00 0.00 0.00 0.00 0.00 0.00 0.00 0.00 0.00 0.01 0.01 0.01 0.02 0.02 0.02 0.02 0.02 0.03 0.04 0.03 0.02 0.03 0.04 0.06 0.04 0.04 0.07 0.06 0.08 0.08 0.09 0.09 0.10 0.10 0.09 0.08 0.08
0.00 0.00 0.00 0.00 0.00 0.00 0.00 0.00 0.00 0.00 0.00 0.00 0.00 0.00 0.00 0.00 0.00 0.00 0.00 0.01 0.01 0.01 0.01 0.01 0.01 0.01 0.01 0.02 0.04 0.03 0.03 0.03 0.02 0.02 0.04 0.05 0.05 0.06 0.07 0.08 0.07 0.08 0.09 0.10 0.10 0.10 0.10 0.08 0.08
0.00 0.00 0.00 0.00 0.00 0.00 0.00 0.00 0.00 0.00 0.00 0.00 0.00 0.00 0.00 0.00 0.00 0.00 0.00 0.01 0.01 0.01 0.00 0.00 0.00 0.00 0.01 0.02 0.02 0.02 0.03 0.03 0.02 0.03 0.05 0.05 0.04 0.05 0.07 0.08 0.06 0.07 0.09 0.11 0.12 0.10 0.10 0.10 0.10
0.00 0.00 0.00 0.00 0.00 0.00 0.00 0.00 0.00 0.00 0.00 0.00 0.00 0.00 0.00 0.00 0.00 0.00 0.00 0.00 0.01 0.01 0.00 0.00 0.01 0.01 0.01 0.01 0.02 0.03 0.03 0.03 0.03 0.03 0.04 0.06 0.04 0.04 0.04 0.06 0.06 0.08 0.10 0.12 0.10 0.09 0.12 0.14 0.13
0.00 0.00 0.00 0.00 0.00 0.00 0.00 0.00 0.00 0.00 0.00 0.00 0.00 0.00 0.00 0.00 0.00 0.00 0.00 0.00 0.00 0.01 0.01 0.01 0.01 0.01 0.01 0.01 0.03 0.04 0.04 0.03 0.03 0.03 0.03 0.04 0.04 0.03 0.03 0.05 0.08 0.11 0.10 0.10 0.09 0.09 0.10 0.09 0.10
0.00 0.00 0.00 0.00 0.00 0.00 0.00 0.00 0.00 0.00 0.00 0.00 0.00 0.00 0.00 0.00 0.00 0.00 0.00 0.00 0.00 0.01 0.01 0.01 0.01 0.01 0.01 0.01 0.01 0.03 0.04 0.03 0.03 0.03 0.05 0.05 0.04 0.03 0.03 0.03 0.04 0.06 0.08 0.08 0.09 0.10 0.08 0.08 0.08
0.00 0.00 0.00 0.00 0.00 0.00 0.00 0.00 0.00 0.00 0.00 0.00 0.00 0.00 0.00 0.00 0.00 0.00 0.00 0.00 0.01 0.01 0.01 0.01 0.01 0.02 0.02 0.01 0.01 0.01 0.02 0.02 0.04 0.04 0.03 0.04 0.03 0.03 0.03 0.03 0.04 0.05 0.08 0.07 0.07 0.08 0.08 0.09 0.08
0.00 0.00 0.00 0.00 0.00 0.00 0.00 0.00 0.00 0.00 0.00 0.00 0.00 0.00 0.00 0.00 0.00 0.00 0.01 0.01 0.01 0.01 0.01 0.01 0.01 0.01 0.01 0.01 0.01 0.01 0.01 0.02 0.02 0.02 0.02 0.04 0.03 0.03 0.03 0.03 0.04 0.06 0.07 0.06 0.06 0.08 0.08 0.08 0.07
0.00 0.00 0.00 0.00 0.00 0.00 0.00 0.00 0.00 0.00 0.00 0.00 0.00 0.00 0.00 0.00 0.00 0.00 0.00 0.01 0.01 0.01 0.01 0.01 0.01 0.01 0.01 0.01 0.01 0.01 0.01 0.01 0.01 0.02 0.02 0.03 0.03 0.02 0.03 0.04 0.06 0.06 0.05 0.06 0.06 0.07 0.08 0.08 0.06
0.00 0.00 0.00 0.00 0.00 0.00 0.00 0.00 0.00 0.00 0.00 0.00 0.00 0.00 0.00 0.00 0.00 0.00 0.01 0.01 0.00 0.01 0.01 0.01 0.01 0.01 0.00 0.00 0.00 0.01 0.01 0.01 0.01 0.02 0.02 0.03 0.04 0.03 0.03 0.04 0.06 0.06 0.05 0.06 0.06 0.05 0.06 0.05 0.04
0.00 0.00 0.00 0.00 0.00 0.00 0.00 0.00 0.00 0.00 0.00 0.00 0.00 0.00 0.00 0.00 0.00 0.00 0.01 0.00 0.00 0.01 0.01 0.01 0.01 0.01 0.00 0.00 0.00 0.01 0.01 0.01 0.02 0.02 0.02 0.03 0.05 0.06 0.06 0.05 0.06 0.06 0.05 0.05 0.05 0.04 0.03 0.02 0.02
0.00 0.00 0.00 0.00 0.00 0.00 0.00 0.00 0.00 0.00 0.00 0.00 0.00 0.00 0.00 0.00 0.00 0.00 0.01 0.00 0.00 0.00 0.01 0.01 0.01 0.01 0.01 0.01 0.01 0.01 0.01 0.01 0.02 0.02 0.02 0.03 0.05 0.06 0.06 0.06 0.06 0.06 0.05 0.05 0.05 0.04 0.03 0.02 0.02
MSLP
1006.12 1006.66 1007.40 1008.24 1009.09 1009.87 1010.52 1011.01 1011.34 1011.55 1011.69 1011.82 1011.97 1012.14 1012.30 1012.43 1012.49 1012.47 1012.40 1012.30 1012.23 1012.25 1012.41 1012.72 1013.14 1013.63 1014.11 1014.52 1014.79 1014.92 1014.94 1014.87 1014.80 1014.78 1014.83 1014.97 1015.17 1015.39 1015.61 1015.77 1015.89 1015.98 1016.06 1016.16 1016.32 1016.52 1016.77 1017.03 1017.27
1006.46 1007.17 1008.03 1008.94 1009.80 1010.52 1011.05 1011.38 1011.53 1011.57 1011.58 1011.62 1011.71 1011.88 1012.08 1012.27 1012.40 1012.47 1012.46 1012.42 1012.41 1012.49 1012.71 1013.06 1013.53 1014.05 1014.55 1014.96 1015.23 1015.34 1015.32 1015.22 1015.12 1015.07 1015.10 1015.23 1015.42 1015.64 1015.84 1016.01 1016.13 1016.22 1016.31 1016.43 1016.60 1016.83 1017.10 1017.37 1017.60
1006.85 1007.71 1008.68 1009.64 1010.49 1011.14 1011.55 1011.73 1011.73 1011.64 1011.55 1011.53 1011.62 1011.82 1012.07 1012.34 1012.56 1012.69 1012.75 1012.76 1012.79 1012.90 1013.13 1013.49 1013.96 1014.48 1014.97 1015.35 1015.59 1015.68 1015.64 1015.53 1015.42 1015.36 1015.40 1015.53 1015.72 1015.94 1016.14 1016.30 1016.42 1016.51 1016.60 1016.73 1016.93 1017.17 1017.45 1017.72 1017.95
1007.24 1008.21 1009.25 1010.23 1011.04 1011.62 1011.93 1012.00 1011.91 1011.75 1011.62 1011.60 1011.72 1011.97 1012.30 1012.64 1012.92 1013.11 1013.21 1013.25 1013.29 1013.39 1013.60 1013.94 1014.37 1014.85 1015.29 1015.63 1015.84 1015.90 1015.85 1015.75 1015.66 1015.64 1015.71 1015.86 1016.07 1016.30 1016.51 1016.66 1016.76 1016.85 1016.95 1017.09 1017.29 1017.55 1017.83 1018.10 1018.30
1007.57 1008.60 1009.66 1010.62 1011.38 1011.89 1012.13 1012.15 1012.02 1011.85 1011.75 1011.79 1011.97 1012.29 1012.69 1013.09 1013.42 1013.63 1013.74 1013.77 1013.79 1013.87 1014.03 1014.31 1014.69 1015.10 1015.47 1015.76 1015.93 1015.98 1015.95 1015.88 1015.83 1015.87 1015.99 1016.20 1016.45 1016.70 1016.90 1017.05 1017.15 1017.23 1017.32 1017.47 1017.67 1017.94 1018.22 1018.47 1018.64
1007.81 1008.83 1009.84 1010.73 1011.43 1011.88 1012.08 1012.09 1011.99 1011.89 1011.87 1012.00 1012.28 1012.68 1013.14 1013.58 1013.92 1014.14 1014.23 1014.24 1014.23 1014.25 1014.36 1014.58 1014.88 1015.21 1015.52 1015.75 1015.89 1015.93 1015.92 1015.90 1015.93 1016.04 1016.24 1016.51 1016.80 1017.08 1017.30 1017.44 1017.53 1017.60 1017.69 1017.83 1018.04 1018.30 1018.57 1018.80 1018.95
1007.96 1008.89 1009.79 1010.57 1011.18 1011.57 1011.76 1011.80 1011.79 1011.79 1011.90 1012.15 1012.54 1013.02 1013.53 1013.98 1014.33 1014.53 1014.59 1014.57 1014.52 1014.51 1014.58 1014.73 1014.97 1015.23 1015.47 1015.65 1015.76 1015.80 1015.81 1015.85 1015.95 1016.15 1016.43 1016.76 1017.10 1017.40 1017.63 1017.77 1017.85 1017.91 1017.99 1018.12 1018.33 1018.58 1018.84 1019.05 1019.17
1008.03 1008.81 1009.55 1010.19 1010.68 1011.01 1011.20 1011.31 1011.41 1011.56 1011.81 1012.20 1012.69 1013.24 1013.78 1014.24 1014.56 1014.74 1014.79 1014.74 1014.68 1014.65 1014.69 1014.81 1015.00 1015.21 1015.40 1015.53 1015.61 1015.65 1015.70 1015.78 1015.95 1016.22 1016.56 1016.95 1017.32 1017.64 1017.87 1018.00 1018.07 1018.12 1018.19 1018.32 1018.52 1018.76 1019.00 1019.19 1019.28
1008.07 1008.65 1009.20 1009.66 1010.03 1010.31 1010.51 1010.70 1010.91 1011.21 1011.61 1012.12 1012.71 1013.31 1013.86 1014.32 1014.62 1014.78 1014.81 1014.77 1014.72 1014.70 1014.75 1014.87 1015.04 1015.21 1015.36 1015.47 1015.52 1015.56 1015.62 1015.74 1015.96 1016.27 1016.66 1017.08 1017.47 1017.79 1018.02 1018.14 1018.19 1018.23 1018.30 1018.42 1018.61 1018.84 1019.06 1019.22 1019.28
1008.09 1008.48 1008.83 1009.12 1009.37 1009.59 1009.82 1010.08 1010.41 1010.84 1011.37 1011.98 1012.63 1013.26 1013.82 1014.25 1014.54 1014.68 1014.72 1014.71 1014.70 1014.72 1014.81 1014.95 1015.12 1015.28 1015.41 1015.49 1015.53 1015.56 1015.63 1015.76 1016.00 1016.34 1016.75 1017.18 1017.57 1017.88 1018.09 1018.20 1018.24 1018.27 1018.32 1018.44 1018.62 1018.83 1019.03 1019.17 1019.21
1008.16 1008.37 1008.53 1008.68 1008.83 1009.01 1009.25 1009.57 1010.00 1010.54 1011.17 1011.85 1012.54 1013.17 1013.71 1014.11 1014.38 1014.52 1014.58 1014.61 1014.66 1014.75 1014.89 1015.07 1015.26 1015.43 1015.55 1015.62 1015.64 1015.66 1015.72 1015.86 1016.10 1016.44 1016.84 1017.26 1017.63 1017.93 1018.11 1018.21 1018.24 1018.26 1018.31 1018.42 1018.58 1018.78 1018.96 1019.08 1019.09
1008.29 1008.36 1008.39 1008.43 1008.50 1008.65 1008.91 1009.29 1009.79 1010.41 1011.09 1011.80 1012.49 1013.10 1013.60 1013.97 1014.21 1014.36 1014.45 1014.53 1014.63 1014.79 1014.99 1015.22 1015.45 1015.63 1015.75 1015.80 1015.82 1015.83 1015.88 1016.01 1016.24 1016.57 1016.95 1017.34 1017.69 1017.95 1018.12 1018.20 1018.22 1018.24 1018.29 1018.39 1018.55 1018.74 1018.90 1018.99 1018.98
1008.51 1008.50 1008.45 1008.41 1008.45 1008.59 1008.87 1009.29 1009.84 1010.48 1011.18 1011.88 1012.54 1013.10 1013.55 1013.88 1014.10 1014.24 1014.35 1014.48 1014.64 1014.86 1015.11 1015.38 1015.63 1015.82 1015.94 1016.00 1016.01 1016.02 1016.06 1016.18 1016.40 1016.70 1017.05 1017.41 1017.73 1017.97 1018.12 1018.19 1018.22 1018.24 1018.29 1018.39 1018.54 1018.71 1018.86 1018.94 1018.91
1008.84 1008.79 1008.71 1008.65 1008.68 1008.83 1009.13 1009.57 1010.13 1010.77 1011.44 1012.10 1012.69 1013.19 1013.57 1013.85 1014.04 1014.18 1014.31 1014.47 1014.67 1014.92 1015.20 1015.49 1015.75 1015.96 1016.09 1016.15 1016.16 1016.17 1016.22 1016.34 1016.54 1016.82 1017.14 1017.47 1017.76 1017.98 1018.12 1018.19 1018.22 1018.25 1018.31 1018.41 1018.56 1018.73 1018.86 1018.92 1018.89
1009.26 1009.21 1009.12 1009.08 1009.12 1009.30 1009.61 1010.06 1010.60 1011.20 1011.82 1012.39 1012.90 1013.32 1013.64 1013.87 1014.03 1014.17 1014.31 1014.48 1014.70 1014.96 1015.26 1015.55 1015.81 1016.01 1016.15 1016.22 1016.25 1016.27 1016.33 1016.45 1016.64 1016.89 1017.19 1017.48 1017.75 1017.95 1018.09 1018.16 1018.21 1018.25 1018.32 1018.44 1018.59 1018.75 1018.88 1018.94 1018.90
1009.74 1009.70 1009.64 1009.63 1009.71 1009.90 1010.22 1010.65 1011.15 1011.68 1012.21 1012.69 1013.11 1013.44 1013.70 1013.89 1014.03 1014.17 1014.32 1014.50 1014.72 1014.99 1015.27 1015.55 1015.79 1015.99 1016.13 1016.21 1016.26 1016.31 1016.39 1016.51 1016.69 1016.92 1017.19 1017.45 1017.69 1017.88 1018.01 1018.10 1018.16 1018.23 1018.32 1018.45 1018.60 1018.76 1018.89 1018.96 1018.93
1010.21 1010.20 1010.18 1010.21 1010.32 1010.54 1010.86 1011.25 1011.68 1012.12 1012.54 1012.91 1013.22 1013.48 1013.68 1013.85 1014.00 1014.15 1014.31 1014.51 1014.73 1014.99 1015.25 1015.51 1015.74 1015.92 1016.06 1016.16 1016.24 1016.31 1016.40 1016.52 1016.70 1016.90 1017.14 1017.37 1017.58 1017.75 1017.89 1017.99 1018.07 1018.16 1018.27 1018.42 1018.58 1018.74 1018.87 1018.95 1018.93
1010.63 1010.64 1010.66 1010.74 1010.90 1011.13 1011.43 1011.76 1012.10 1012.43 1012.72 1012.98 1013.19 1013.38 1013.55 1013.71 1013.88 1014.07 1014.27 1014.49 1014.73 1014.98 1015.23 1015.47 1015.67 1015.85 1016.00 1016.11 1016.21 1016.30 1016.40 1016.53 1016.68 1016.86 1017.05 1017.24 1017.42 1017.58 1017.71 1017.83 1017.93 1018.05 1018.18 1018.34 1018.51 1018.67 1018.81 1018.89 1018.90
1010.93 1010.96 1011.03 1011.17 1011.37 1011.61 1011.89 1012.15 1012.39 1012.58 1012.74 1012.87 1012.99 1013.12 1013.27 1013.46 1013.67 1013.92 1014.18 1014.45 1014.72 1014.98 1015.22 1015.44 1015.64 1015.81 1015.96 1016.08 1016.20 1016.30 1016.41 1016.53 1016.65 1016.79 1016.94 1017.08 1017.23 1017.36 1017.49 1017.62 1017.74 1017.88 1018.04 1018.21 1018.39 1018.55 1018.69 1018.79 1018.80
1011.07 1011.14 1011.27 1011.47 1011.72 1011.98 1012.22 1012.40 1012.52 1012.58 1012.59 1012.60 1012.63 1012.71 1012.85 1013.08 1013.36 1013.69 1014.03 1014.37 1014.69 1014.98 1015.23 1015.44 1015.63 1015.79 1015.95 1016.08 1016.21 1016.32 1016.43 1016.52 1016.62 1016.71 1016.80 1016.89 1016.99 1017.10 1017.22 1017.35 1017.50 1017.67 1017.84 1018.03 1018.21 1018.38 1018.52 1018.62 1018.65
1011.03 1011.17 1011.38 1011.66 1011.96 1012.24 1012.44 1012.55 1012.55 1012.45 1012.32 1012.20 1012.13 1012.17 1012.32 1012.59 1012.95 1013.37 1013.81 1014.23 1014.62 1014.94 1015.21 1015.43 1015.62 1015.78 1015.93 1016.08 1016.21 1016.33 1016.42 1016.50 1016.55 1016.59 1016.62 1016.66 1016.71 1016.79 1016.90 1017.03 1017.19 1017.38 1017.58 1017.78 1017.97 1018.14 1018.28 1018.38 1018.43
1010.87 1011.09 1011.41 1011.78 1012.15 1012.44 1012.61 1012.63 1012.51 1012.27 1011.98 1011.73 1011.57 1011.55 1011.70 1012.01 1012.45 1012.97 1013.51 1014.01 1014.46 1014.83 1015.12 1015.36 1015.55 1015.71 1015.87 1016.02 1016.16 1016.28 1016.36 1016.41 1016.42 1016.41 1016.38 1016.36 1016.36 1016.40 1016.49 1016.63 1016.80 1017.00 1017.22 1017.44 1017.64 1017.82 1017.97 1018.08 1018.15
1010.65 1010.97 1011.40 1011.88 1012.31 1012.63 1012.76 1012.70 1012.45 1012.06 1011.63 1011.24 1010.98 1010.91 1011.05 1011.39 1011.89 1012.49 1013.11 1013.69 1014.19 1014.61 1014.92 1015.17 1015.37 1015.54 1015.70 1015.86 1016.01 1016.13 1016.21 1016.24 1016.22 1016.15 1016.07 1015.99 1015.94 1015.93 1015.99 1016.11 1016.29 1016.51 1016.75 1016.99 1017.21 1017.41 1017.58 1017.71 1017.79
1010.44 1010.87 1011.42 1011.99 1012.48 1012.81 1012.91 1012.76 1012.39 1011.86 1011.28 1010.76 1010.40 1010.27 1010.39 1010.74 1011.28 1011.93 1012.61 1013.24 1013.80 1014.24 1014.58 1014.84 1015.04 1015.22 1015.40 1015.57 1015.74 1015.87 1015.95 1015.97 1015.92 1015.82 1015.68 1015.54 1015.43 1015.38 1015.40 1015.50 1015.68 1015.91 1016.16 1016.43 1016.68 1016.91 1017.11 1017.26 1017.39
1010.31 1010.85 1011.49 1012.13 1012.67 1012.99 1013.04 1012.81 1012.32 1011.66 1010.95 1010.32 1009.87 1009.66 1009.74 1010.08 1010.64 1011.31 1012.02 1012.69 1013.27 1013.73 1014.09 1014.35 1014.57 1014.77 1014.97 1015.17 1015.37 1015.52 1015.62 1015.64 1015.58 1015.44 1015.25 1015.06 1014.88 1014.77 1014.75 1014.82 1014.98 1015.21 1015.49 1015.79 1016.08 1016.35 1016.58 1016.78 1016.95
1010.29 1010.91 1011.61 1012.29 1012.83 1013.13 1013.12 1012.80 1012.21 1011.45 1010.63 1009.90 1009.37 1009.10 1009.14 1009.45 1010.00 1010.67 1011.39 1012.06 1012.65 1013.12 1013.48 1013.76 1014.00 1014.23 1014.46 1014.71 1014.94 1015.14 1015.27 1015.30 1015.23 1015.07 1014.84 1014.59 1014.35 1014.18 1014.10 1014.13 1014.27 1014.50 1014.80 1015.12 1015.46 1015.78 1016.06 1016.31 1016.52
1010.38 1011.02 1011.74 1012.41 1012.92 1013.16 1013.10 1012.70 1012.03 1011.19 1010.30 1009.51 1008.91 1008.60 1008.60 1008.88 1009.39 1010.05 1010.75 1011.41 1011.99 1012.46 1012.83 1013.12 1013.39 1013.66 1013.94 1014.23 1014.52 1014.77 1014.94 1015.00 1014.94 1014.77 1014.51 1014.20 1013.91 1013.68 1013.54 1013.53 1013.65 1013.87 1014.18 1014.53 1014.91 1015.27 1015.61 1015.91 1016.17
1010.51 1011.14 1011.81 1012.43 1012.88 1013.06 1012.93 1012.47 1011.76 1010.87 1009.96 1009.13 1008.52 1008.18 1008.15 1008.40 1008.88 1009.50 1010.16 1010.80 1011.35 1011.82 1012.19 1012.51 1012.81 1013.12 1013.47 1013.83 1014.18 1014.49 1014.71 1014.81 1014.77 1014.59 1014.31 1013.97 1013.63 1013.35 1013.16 1013.11 1013.20 1013.41 1013.73 1014.11 1014.52 1014.92 1015.30 1015.64 1015.93
1010.63 1011.19 1011.79 1012.32 1012.68 1012.79 1012.60 1012.11 1011.39 1010.51 1009.62 1008.82 1008.22 1007.88 1007.84 1008.07 1008.51 1009.08 1009.70 1010.29 1010.82 1011.27 1011.65 1011.99 1012.33 1012.69 1013.09 1013.52 1013.94 1014.31 1014.59 1014.74 1014.72 1014.56 1014.28 1013.92 1013.56 1013.24 1013.02 1012.94 1013.01 1013.21 1013.53 1013.92 1014.35 1014.77 1015.17 1015.52 1015.82
1010.68 1011.15 1011.64 1012.07 1012.33 1012.37 1012.15 1011.67 1010.98 1010.16 1009.33 1008.60 1008.05 1007.76 1007.72 1007.93 1008.34 1008.85 1009.41 1009.95 1010.44 1010.87 1011.24 1011.60 1011.97 1012.38 1012.83 1013.32 1013.80 1014.23 1014.56 1014.75 1014.77 1014.64 1014.37 1014.03 1013.66 1013.34 1013.11 1013.02 1013.07 1013.27 1013.58 1013.97 1014.40 1014.82 1015.21 1015.55 1015.82
Thickness
5845 5848 5850 5844 5830 5810 5790 5792 5797 5792 5789 5794 5794 5788 5780 5772 5767 5754 5770 5777 5775 5773 5769 5763 5760 5759 5758 5758 5757 5757 5757 5757 5757 5756 5756 5756 5755 5755 5755 5755 5755 5755 5755 5754 5754 5754 5753 5752 5751
5856 5854 5849 5843 5822 5793 5783 5795 5792 5790 5793 5796 5793 5788 5780 5772 5774 5770 5773 5774 5775 5773 5770 5764 5758 5757 5757 5756 5756 5756 5755 5755 5755 5754 5754 5754 5753 5753 5753 5753 5753 5753 5752 5751 5751 5751 5750 5750 5749
5859 5857 5847 5837 5812 5794 5786 5796 5794 5797 5800 5796 5788 5787 5780 5771 5773 5774 5776 5776 5776 5772 5768 5761 5757 5756 5755 5755 5754 5754 5753 5753 5753 5752 5752 5752 5752 5751 5751 5750 5750 5750 5750 5749 5749 5748 5748 5747 5747
5860 5855 5849 5829 5803 5803 5802 5802 5803 5798 5797 5797 5791 5780 5778 5779 5780 5779 5778 5777 5776 5772 5769 5761 5756 5755 5754 5753 5752 5752 5752 5752 5751 5751 5750 5750 5750 5750 5749 5748 5748 5748 5748 5747 5746 5746 5746 5745 5745
5864 5854 5835 5817 5806 5808 5812 5810 5808 5800 5795 5794 5791 5777 5771 5779 5784 5782 5779 5778 5776 5773 5769 5762 5755 5754 5753 5752 5751 5751 5751 5750 5750 5749 5749 5748 5748 5747 5747 5746 5746 5746 5746 5745 5744 5745 5744 5744 5743
5859 5855 5829 5809 5806 5811 5815 5816 5811 5801 5795 5794 5791 5780 5772 5780 5781 5780 5780 5778 5776 5773 5769 5761 5755 5754 5752 5752 5751 5751 5750 5750 5749 5748 5747 5747 5747 5746 5745 5745 5744 5744 5744 5743 5743 5742 5742 5742 5741
5855 5846 5826 5819 5811 5809 5814 5821 5813 5804 5796 5795 5797 5783 5776 5780 5782 5783 5780 5777 5775 5772 5769 5765 5761 5756 5753 5752 5751 5750 5749 5749 5748 5747 5746 5746 5745 5745 5744 5743 5743 5743 5743 5742 5741 5741 5741 5740 5740
5867 5853 5833 5826 5817 5811 5821 5821 5817 5810 5801 5806 5804 5787 5778 5781 5785 5783 5780 5776 5773 5771 5770 5766 5764 5760 5758 5754 5751 5749 5749 5748 5747 5746 5746 5745 5745 5744 5743 5743 5742 5742 5741 5741 5741 5740 5740 5740 5739
5871 5848 5829 5828 5821 5819 5826 5819 5817 5821 5810 5807 5806 5802 5797 5791 5787 5781 5776 5773 5770 5768 5769 5768 5765 5761 5759 5757 5753 5750 5749 5747 5747 5746 5745 5746 5748 5748 5745 5744 5742 5741 5741 5741 5740 5740 5740 5740 5740
5864 5842 5834 5841 5840 5832 5828 5823 5819 5814 5805 5801 5799 5799 5797 5791 5786 5781 5777 5772 5770 5768 5768 5766 5765 5762 5760 5758 5754 5753 5753 5750 5750 5749 5748 5749 5748 5748 5747 5743 5742 5741 5741 5740 5740 5740 5740 5742 5744
5860 5845 5846 5848 5849 5843 5832 5827 5828 5816 5805 5806 5800 5796 5795 5792 5788 5785 5781 5779 5775 5772 5769 5768 5765 5762 5760 5757 5756 5754 5753 5751 5751 5749 5749 5748 5749 5749 5748 5746 5744 5742 5742 5744 5742 5743 5746 5747 5747
5855 5852 5852 5851 5852 5845 5837 5832 5826 5822 5818 5822 5816 5808 5800 5794 5791 5788 5785 5782 5778 5774 5770 5769 5765 5761 5758 5758 5757 5755 5755 5754 5753 5750 5749 5749 5749 5749 5749 5747 5746 5746 5746 5745 5746 5746 5746 5746 5746
5853 5850 5855 5857 5854 5849 5841 5833 5828 5823 5827 5826 5819 5810 5804 5800 5796 5794 5790 5785 5780 5775 5772 5770 5766 5761 5758 5756 5757 5757 5755 5755 5753 5751 5749 5749 5749 5749 5749 5748 5746 5748 5748 5747 5745 5746 5746 5745 5745
5855 5855 5854 5855 5852 5847 5838 5833 5829 5825 5830 5823 5816 5811 5808 5804 5801 5796 5790 5785 5782 5777 5774 5772 5767 5763 5759 5757 5756 5756 5756 5753 5754 5751 5750 5748 5749 5748 5748 5748 5747 5749 5748 5748 5747 5747 5746 5746 5747
5860 5850 5848 5850 5849 5847 5841 5825 5827 5832 5831 5821 5817 5814 5811 5808 5805 5799 5795 5790 5786 5781 5778 5773 5770 5767 5763 5760 5759 5759 5757 5756 5754 5752 5749 5748 5749 5748 5748 5749 5749 5749 5748 5746 5746 5746 5746 5746 5747
5854 5845 5835 5842 5847 5846 5836 5821 5832 5837 5830 5821 5819 5816 5812 5810 5809 5805 5801 5796 5792 5786 5781 5777 5776 5771 5766 5763 5760 5760 5759 5756 5755 5753 5751 5749 5748 5748 5748 5749 5750 5748 5748 5748 5747 5747 5747 5747 5747
5841 5835 5835 5836 5847 5845 5837 5828 5835 5839 5832 5824 5821 5819 5815 5812 5810 5809 5806 5801 5796 5790 5785 5780 5778 5774 5770 5766 5763 5761 5758 5756 5755 5754 5752 5751 5750 5749 5749 5749 5748 5748 5749 5749 5750 5749 5748 5746 5745
5831 5836 5833 5833 5843 5842 5836 5835 5838 5839 5835 5829 5825 5822 5818 5815 5813 5814 5810 5806 5801 5795 5789 5784 5780 5776 5772 5769 5765 5762 5761 5759 5757 5755 5753 5752 5751 5750 5750 5749 5748 5749 5749 5748 5748 5746 5746 5746 5745
5841 5835 5832 5837 5846 5839 5835 5836 5839 5840 5835 5831 5827 5824 5821 5819 5822 5819 5814 5810 5804 5798 5792 5787 5783 5779 5774 5771 5767 5764 5762 5761 5760 5758 5755 5753 5752 5751 5750 5751 5749 5749 5748 5747 5748 5747 5746 5746 5746
5835 5830 5831 5836 5842 5837 5835 5836 5844 5842 5837 5836 5831 5827 5825 5823 5822 5818 5815 5811 5806 5800 5796 5791 5786 5783 5778 5775 5770 5767 5765 5764 5762 5760 5757 5755 5753 5752 5752 5750 5750 5749 5747 5746 5746 5745 5745 5745 5746
5830 5830 5831 5829 5833 5837 5832 5829 5836 5841 5842 5839 5837 5835 5833 5828 5824 5820 5816 5813 5809 5805 5800 5797 5791 5786 5781 5777 5773 5769 5765 5763 5762 5759 5758 5756 5754 5753 5751 5750 5750 5748 5748 5746 5745 5745 5743 5742 5744
5822 5838 5834 5829 5822 5825 5826 5817 5833 5839 5836 5835 5836 5836 5835 5833 5830 5825 5820 5816 5813 5810 5806 5800 5794 5788 5784 5779 5776 5770 5766 5763 5762 5761 5760 5757 5754 5753 5752 5750 5748 5747 5747 5745 5745 5746 5743 5741 5740
5831 5838 5833 5829 5824 5821 5825 5818 5831 5839 5831 5834 5838 5839 5840 5838 5834 5829 5825 5821 5818 5815 5810 5803 5796 5790 5785 5781 5777 5771 5769 5767 5765 5762 5759 5757 5755 5753 5751 5750 5748 5746 5746 5745 5744 5743 5742 5741 5740
5831 5827 5823 5825 5824 5802 5816 5812 5817 5834 5832 5837 5841 5840 5840 5840 5837 5833 5829 5825 5819 5816 5811 5804 5796 5790 5786 5781 5778 5773 5769 5766 5763 5760 5759 5757 5756 5754 5752 5750 5748 5747 5746 5744 5743 5742 5741 5741 5739
5823 5811 5797 5793 5796 5800 5818 5809 5817 5837 5841 5840 5840 5840 5841 5840 5837 5832 5828 5823 5819 5815 5811 5805 5798 5791 5787 5783 5779 5775 5771 5767 5763 5761 5760 5758 5757 5755 5752 5751 5748 5748 5746 5745 5743 5741 5741 5740 5738
5817 5817 5795 5784 5790 5805 5805 5804 5824 5840 5841 5842 5843 5842 5841 5840 5838 5834 5830 5825 5820 5816 5811 5806 5799 5793 5789 5785 5780 5777 5772 5770 5768 5764 5763 5760 5757 5756 5753 5750 5748 5747 5746 5745 5743 5742 5740 5738 5737
5811 5813 5827 5811 5803 5798 5807 5814 5826 5836 5834 5836 5837 5837 5836 5837 5836 5833 5830 5826 5822 5817 5812 5808 5801 5794 5790 5787 5782 5777 5773 5771 5769 5765 5763 5761 5757 5756 5753 5750 5748 5747 5745 5744 5742 5741 5739 5737 5736
5820 5819 5811 5801 5781 5777 5794 5801 5811 5820 5824 5828 5829 5831 5832 5833 5833 5831 5829 5827 5824 5819 5814 5809 5802 5796 5792 5788 5783 5779 5775 5771 5768 5766 5762 5760 5757 5755 5752 5750 5748 5746 5744 5742 5740 5739 5737 5735 5733
5801 5802 5804 5803 5801 5784 5781 5799 5824 5821 5824 5825 5826 5828 5829 5830 5830 5828 5827 5826 5822 5818 5813 5807 5801 5795 5791 5788 5784 5779 5775 5772 5769 5765 5762 5759 5757 5754 5751 5749 5746 5744 5742 5740 5738 5736 5734 5732 5731
5806 5804 5800 5786 5783 5791 5790 5800 5825 5824 5827 5825 5825 5825 5826 5827 5828 5826 5824 5821 5818 5814 5810 5805 5800 5796 5791 5787 5783 5779 5775 5772 5768 5765 5761 5758 5755 5753 5750 5747 5744 5742 5740 5738 5735 5733 5732 5729 5727